Find Starlink 31645

NORAD ID: 59264 Int'l Des: 2024-050 Owner: SPXS Country: US Constellation: starlink operational
LEOCIRCULAR

Current View

Loading 3D Globe...

About Starlink 31645

Starlink 31645 (NORAD 59264) is a starlink constellation satellite (v2 mini) launched Mar 19, 2024 by SPXS of US. It operates in LEO, CIRCULAR orbit with a mass of 730.00 kg.

Upcoming Passes

Passes for default location (London). Set your location on the main map for personalized predictions.

Altitude History

Loading altitude history...

Two-Line Element Set

1 59264U 24050L 26237.09081528 .00018890 00000-0 56873-3 0 9998
2 59264 53.1576 117.2203 0001680 83.8934 276.2260 15.34404007136352
Epoch: Aug 25, 2026 • Age: 16 hours

Current Status

Altitude 467.3 km
Apogee / Perigee N/A
Velocity 7.63 km/s
Sub-Earth Point -16.03°S, 138.04°W
Launch Date Mar 19, 2024
Age 2.4 years
Type internet

Technical Details

Classification Payload
Mass 730.00 kg
Dry Mass 700.00 kg
Total Mass 730.00 kg
Length 0.30 m
Diameter 4.10 m
Span 29.00 m
Shape Box + pan
Manufacturer SPXS
Bus Type Starlink V2M
Phase Status In Orbit
Owner/State SPXS/US

Most Searched